Regional Weather Roundup
Issued by NWS

Home | Current Version | Previous Version | Text Only | Print | Product List | Glossary On
Versions: 1 2 3 4 5 6 7 8 9 10 11 12 13 14 15 16 17 18 19 20 21 22 23 24 25 26 27 28 29 30 31 32 33 34 35 36 37 38 39 40 41 42 43 44 45 46 47 48 49 50
000
ASUS43 KMKX 240524
RWRWI

WISCONSIN REGIONAL WEATHER ROUNDUP
NATIONAL WEATHER SERVICE MILWAUKEE/SULLIVAN WI
1200 AM CDT THU APR 24 2014

NOTE: "FAIR" INDICATES FEW OR NO CLOUDS BELOW 12,000 FEET WITH NO
SIGNIFICANT WEATHER AND/OR OBSTRUCTIONS TO VISIBILITY.

WIZ001-002-006>008-014>016-023>028-240600-
NORTHWEST WISCONSIN

CITY           SKY/WX    TMP DP  RH WIND       PRES   REMARKS
SUPERIOR ARPT  RAIN      34  33  96 NE8       30.04S WCI  27
ASHLAND        CLOUDY    36  31  82 W3        30.06R
HAYWARD        LGT RAIN  38  35  89 E8        30.02S WCI  32
SIREN          LGT RAIN  39  37  95 E5        30.01R
RICE LAKE      RAIN      39  37  94 E8        30.03S WCI  33
LADYSMITH      LGT RAIN  39  36  86 SE9       30.05S WCI  33
EAU CLAIRE     LGT RAIN  42  40  92 E12       30.00R
MENOMONIE      CLOUDY    42  39  91 E10       30.00S
NEW RICHMOND   CLOUDY    42  38  85 SE12      29.96F
OSCEOLA        CLOUDY    41  40  95 E12       29.99S
$$

WIZ003>005-009-010-017-018-240600-
NORTH CENTRAL WISCONSIN

CITY           SKY/WX    TMP DP  RH WIND       PRES   REMARKS
WOODRUFF       CLOUDY    43  18  36 SE8       30.05S
RHINELANDER    CLOUDY    41  16  36 SE8       30.06F
EAGLE RIVER    CLOUDY    41  11  29 SE7       30.05F
LAND O LAKES   CLOUDY    41  14  33 SE5       30.07S
PHILLIPS       DRIZZLE   41  32  70 SE7       30.03F
TOMAHAWK       CLOUDY    41  22  45 CALM      30.05S
MEDFORD        LGT RAIN  39  34  81 E10G16    30.04S WCI  32
MERRILL        MIX PCPN  42  25  50 S6        30.07R
$$

WIZ029-030-035-036-043>047-240600-
CENTRAL WISCONSIN

CITY           SKY/WX    TMP DP  RH WIND       PRES   REMARKS
WAUSAU         LGT RAIN  40  28  62 SE7       30.05F
MOSINEE        CLOUDY    41  21  45 E6        30.07S
MARSHFIELD     LGT RAIN  40  33  76 SE9       30.04S WCI  34
STEVENS POINT  CLOUDY    40  19  41 E8        30.07S
WAUPACA        CLOUDY    45  10  24 E7        30.08F
WAUTOMA        LGT RAIN  39  33  79 CALM      30.08S
WISC RAPIDS    LGT RAIN  39  30  70 SE8       30.07R WCI  33
CAMP DOUGLAS   LGT RAIN  40  40 100 E13       30.04R WCI  33
$$

WIZ011>013-019>022-031-037>040-048>050-240600-
NORTHEAST WISCONSIN

CITY           SKY/WX    TMP DP  RH WIND       PRES   REMARKS
ANTIGO         CLOUDY    38  14  36 SE5       30.07F WCI  35
STURGEON BAY   CLOUDY    39  14  35 E6        30.12R WCI  35
GREEN BAY      CLOUDY    41  19  41 E5        30.11R
MANITOWOC      CLOUDY    39  19  44 CALM      30.12R
APPLETON       CLOUDY    41  10  28 E6        30.09S
CLINTONVILLE   CLOUDY    41  10  28 E6        30.09F
OSHKOSH        CLOUDY    41   9  26 E8        30.08S
$$

WIZ032>034-041-042-053>061-240600-
SOUTHWEST WISCONSIN

CITY           SKY/WX    TMP DP  RH WIND       PRES   REMARKS
LA CROSSE      CLOUDY    45  38  76 SE10      30.00R
SPARTA         LGT RAIN  42  41  95 E10       30.02S
VIROQUA        CLOUDY    41  37  84 E15       29.99R
BOSCOBEL       LGT RAIN  46  34  62 E5G20     30.01R
PRAIRIE DU CHI CLOUDY    46  35  64 E10G17    29.98R
PLATTEVILLE    MOCLDY    43  35  75 E13       29.99F
$$

WIZ056-057-062-063-064-067-068-240600-
SOUTH CENTRAL WISCONSIN

CITY           SKY/WX    TMP DP  RH WIND       PRES   REMARKS
BARABOO/DELLS  DRIZZLE   38  34  84 E9        30.05R WCI  32
LONE ROCK      LGT RAIN  42  37  82 E16       30.03R
WATERTOWN      RAIN      37  23  58 E7        30.06R WCI  31
MADISON        CLOUDY    39  31  72 E7        30.06R WCI  34
MIDDLETON      CLOUDY    40  32  73 E9        30.05R WCI  34
MONROE         CLOUDY    40  38  91 E9        30.03R WCI  34
JANESVILLE     LGT RAIN  41  32  70 E6        30.05S
$$

WIZ051-052-058>065-066-070>072-240600-
SOUTHEAST WISCONSIN

CITY           SKY/WX    TMP DP  RH WIND       PRES   REMARKS
MILWAUKEE      CLOUDY    38  21  50 NE5       30.09R WCI  34
WAUKESHA       LGT RAIN  36  16  44 E6        30.08F WCI  31
MILWAUKEE/TIMM CLOUDY    37  10  32 NE3       30.09S
RACINE         CLOUDY    38  22  52 N8        30.09S WCI  32
BURLINGTON     MIX PCPN  35  27  74 NE6       30.07R WCI  29
KENOSHA        MIX PCPN  37  26  64 NE8       30.07R WCI  31
FOND DU LAC    CLOUDY    41   4  21 E5        30.07F
SHEBOYGAN      CLOUDY    38  17  42 NE5       30.09S WCI  34
WEST BEND      CLOUDY    36  10  35 NE6       30.08S WCI  31
JUNEAU         RAIN      37  17  43 E8        30.07F WCI  31
$$

LSZ147-162-240600-
LAKE SUPERIOR

STATION/POSITION TIME  TEMP    WIND        PRES    WAVE
                       AIR SEA DIR/SP/G            HT/PER
                 (UTC) (F)     (DEG/KT/KT) (MB)    (FT/S)
DEVILS ISLAND    0500   37     220/  9/ 10 1018.5R
PORT WING        0400   34      70/  2/  3 1017.9R
SAXON HARBOR     0400             CALM     1016.9
$$

LMZ867-665-643>646-240600-
LAKE MICHIGAN

STATION/POSITION TIME  TEMP    WIND        PRES    WAVE
                       AIR SEA DIR/SP/G            HT/PER
                 (UTC) (F)     (DEG/KT/KT) (MB)    (FT/S)
NORTHPORT PIER   0300   39     200/  1/  5 1020.0F
SISTER BAY       0423   36        CALM       N/A
KEWAUNEE LAKESHO 0400   40      40/  5/  8 1019.9R
SHEBOYGAN LAKESH 0500   40      20/  8/  8 1020.0R
PORT WASHINGTON  0400   40      30/  5/  7 1019.3F
MILWAUKEE LAKESH 0500   38      30/  6/  7   N/A
KENOSHA   LAKESH 0500   37      20/  8/  9   N/A
$$

TC  - TEMPERATURE IN CELSIUS
VSB - VISIBILITY IN STATUTE MILES
WCI - WIND CHILL INDEX
HX  - HEAT INDEX




USA.gov is the U.S. government's official web portal to all federal, state and local government web resources and services.